Weather History for Ogden, UT

Change the Weather History Date:

Wednesday, April 30, 2014

  Actual Average Record
Temperature  
Mean Temperature 50 °F -  
Max Temperature 64 °F 64 °F 85 °F (1987)
Min Temperature 35 °F 38 °F 24 °F (1972)
Degree Days  
Heating Degree Days 16    
Moisture  
Dew Point 19 °F    
Average Humidity 30    
Maximum Humidity 61    
Minimum Humidity 14    
Precipitation  
Precipitation 0.00 in - - ()
Sea Level Pressure  
Sea Level Pressure 30.33 in    
Wind  
Wind Speed 7 mph (NNW)    
Max Wind Speed 20 mph    
Max Gust Speed 26 mph    
Visibility 10 miles    
Events      
Averages and records for this station are not official NWS values.
T = Trace of Precipitation, MM = Missing Value Source: NWS Daily Summary

Daily Weather History Graph

Daily Weather History Graph

Search for Another Location

Airport:

Trip Planner

Search our weather history database for the weather conditions in past years. The results will help you decide how hot, cold, wet, or windy it might be!

Date:

Astronomy

Apr. 30, 2014 Rise Set
Actual Time 6:26 AM MDT 8:24 PM MDT
Civil Twilight 5:57 AM MDT 8:54 PM MDT
Nautical Twilight 5:20 AM MDT 9:30 PM MDT
Astronomical Twilight 4:41 AM MDT 10:10 PM MDT
Moon 7:30 AM MDT (4/30) 10:07 PM MDT (4/30)
Length of Visible Light 14h 57m
Length of Day
13h 57m
Waxing Crescent, 3% of the Moon is Illuminated
Apr 30
Waxing Crescent
May 6
First Quarter
May 14
Full
May 21
Last Quarter
May 28
New

Hourly Weather History & Observations

Time (MDT) Temp. Windchill Dew Point Humidity Pressure Visibility Wind Dir Wind Speed Gust Speed Precip Events Conditions
12:53 AM 46.9 °F - 19.0 °F 33% 30.39 in 10.0 mi North 4.6 mph - N/A   Clear
1:53 AM 44.1 °F 41.5 °F 21.0 °F 40% 30.40 in 10.0 mi NNW 4.6 mph - N/A   Clear
2:53 AM 42.1 °F 38.4 °F 19.9 °F 41% 30.40 in 10.0 mi West 5.8 mph - N/A   Clear
3:53 AM 39.0 °F 36.8 °F 23.0 °F 53% 30.41 in 10.0 mi SSW 3.5 mph - N/A   Clear
5:53 AM 35.1 °F 31.0 °F 23.0 °F 61% 30.41 in 10.0 mi Variable 4.6 mph - N/A   Clear
6:53 AM 37.9 °F - 23.0 °F 55% 30.41 in 10.0 mi Calm Calm - N/A   Clear
7:53 AM 44.1 °F 40.1 °F 23.0 °F 43% 30.41 in 10.0 mi NNW 6.9 mph - N/A   Clear
9:53 AM 51.1 °F - 18.0 °F 27% 30.41 in 10.0 mi NE 9.2 mph - N/A   Clear
10:53 AM 54.0 °F - 18.0 °F 24% 30.40 in 10.0 mi NE 8.1 mph 18.4 mph N/A   Clear
11:53 AM 54.0 °F - 19.9 °F 26% 30.39 in 10.0 mi West 8.1 mph 17.3 mph N/A   Clear
12:53 PM 57.0 °F - 18.0 °F 22% 30.35 in 10.0 mi North 11.5 mph - N/A   Clear
1:53 PM 57.9 °F - 18.0 °F 21% 30.33 in 10.0 mi NNW 10.4 mph 20.7 mph N/A   Clear
2:53 PM 60.1 °F - 18.0 °F 20% 30.30 in 10.0 mi NNW 17.3 mph 20.7 mph N/A   Clear
3:53 PM 63.0 °F - 17.1 °F 17% 30.27 in 10.0 mi NNW 15.0 mph 25.3 mph N/A   Clear
4:53 PM 63.0 °F - 14.0 °F 15% 30.25 in 10.0 mi NW 19.6 mph 26.5 mph N/A   Clear
5:53 PM 64.9 °F - 14.0 °F 14% 30.24 in 10.0 mi NNW 12.7 mph - N/A   Clear
6:53 PM 63.0 °F - 12.9 °F 14% 30.22 in 10.0 mi North 17.3 mph - N/A   Clear
7:53 PM 60.1 °F - 19.0 °F 20% 30.22 in 10.0 mi North 10.4 mph - N/A   Clear
8:53 PM 57.0 °F - 17.1 °F 21% 30.22 in 10.0 mi North 10.4 mph - N/A   Clear
9:53 PM 54.0 °F - 19.0 °F 25% 30.24 in 10.0 mi NE 4.6 mph - N/A   Clear
10:53 PM 48.9 °F - 23.0 °F 36% 30.26 in 10.0 mi WNW 4.6 mph - N/A   Clear
11:53 PM 46.9 °F - 25.0 °F 42% 30.27 in 10.0 mi SSE 8.1 mph - N/A   Clear